Location: Newark
(40.9464°N, 15.0486°E)
Time: 23:55:05
(UTC+00:00)

Hubble Space Telescope - Visible Passes

Search period start: 21 January 2021 00:00
Search period end: 31 January 2021 00:00
Orbit: 536 x 539 km, 28.5° (Epoch: 21 January)

Date Brightness Start Highest point End Pass type
(mag) Time Alt. Az. Time Alt. Az. Time Alt. Az.
21 Jan 3.0 17:55:22 10° SSW 17:57:39 14° S 17:58:37 13° SSE visible
22 Jan 3.2 17:44:26 10° SW 17:46:41 14° S 17:48:30 11° SSE visible
23 Jan 3.3 17:33:35 10° SW 17:35:44 14° S 17:37:52 10° SSE visible
24 Jan 3.3 17:22:49 10° SW 17:24:47 13° S 17:26:44 10° SSE visible
25 Jan 3.4 17:12:09 10° SSW 17:13:48 12° S 17:15:28 10° SSE visible
26 Jan 3.6 17:01:42 10° SSW 17:02:50 11° SSW 17:03:59 10° S visible
